| time (UTC) | temp F | wind direction | speed knots | gust knots | rain 1hr in | rain 24hr in | rain mn in | humidity % | barometer mb |
| 20260507073722 | 57 | 82 | 1.7 | 3.5 | 0.00 | 0.00 | 0.00 | 24 | 1017.2 |
| 20260507072714 | 57 | 105 | 0.9 | 2.6 | 0.00 | 0.00 | 0.00 | 24 | 1017.3 |
| 20260507071722 | 58 | 73 | 0.9 | 3.5 | 0.00 | 0.00 | 0.00 | 24 | 1017.4 |
| 20260507070720 | 57 | 49 | 1.7 | 4.3 | 0.00 | 0.00 | 0.00 | 23 | 1017.5 |
| 20260507065721 | 56 | 82 | 1.7 | 2.6 | 0.00 | 0.00 | 0.00 | 25 | 1017.5 |
| 20260507064715 | 56 | 78 | 0.9 | 1.7 | 0.00 | 0.00 | 0.00 | 26 | 1017.5 |
| 20260507063715 | 56 | 86 | 0.9 | 3.5 | 0.00 | 0.00 | 0.00 | 27 | 1017.5 |
| 20260507062709 | 56 | 92 | 2.6 | 4.3 | 0.00 | 0.00 | 0.00 | 26 | 1017.5 |
| 20260507061722 | 56 | 89 | 1.7 | 5.2 | 0.00 | 0.00 | 0.00 | 26 | 1017.5 |
| 20260507060717 | 57 | 136 | 0.9 | 3.5 | 0.00 | 0.00 | 0.00 | 25 | 1017.5 |
| 20260507055709 | 57 | 138 | 0.0 | 5.2 | 0.00 | 0.00 | 0.00 | 25 | 1017.6 |
| 20260507053722 | 58 | 86 | 1.7 | 2.6 | 0.00 | 0.00 | 0.00 | 23 | 1017.5 |
| 20260507052715 | 59 | 84 | 2.6 | 2.6 | 0.00 | 0.00 | 0.00 | 23 | 1017.3 |
| 20260507050707 | 59 | 134 | 0.9 | 5.2 | 0.00 | 0.00 | 0.00 | 21 | 1017.4 |
| 20260507045724 | 59 | 84 | 2.6 | 5.2 | 0.00 | 0.00 | 0.00 | 21 | 1017.3 |
| 20260507043716 | 63 | 126 | 1.7 | 2.6 | 0.00 | 0.00 | 0.00 | 17 | 1016.9 |
| 20260507042711 | 63 | 186 | 1.7 | 4.3 | 0.00 | 0.00 | 0.00 | 16 | 1016.8 |
| 20260507041709 | 63 | 167 | 1.7 | 3.5 | 0.00 | 0.00 | 0.00 | 16 | 1016.7 |
| 20260507040706 | 63 | 169 | 1.7 | 3.5 | 0.00 | 0.00 | 0.00 | 16 | 1016.6 |
| 20260507034717 | 63 | 150 | 2.6 | 5.2 | 0.00 | 0.00 | 0.00 | 16 | 1016.2 |
| 20260507033710 | 63 | 138 | 2.6 | 4.3 | 0.00 | 0.00 | 0.00 | 17 | 1016.2 |
| 20260507032706 | 64 | 53 | 3.5 | 5.2 | 0.00 | 0.00 | 0.00 | 16 | 1016.1 |
| 20260507031723 | 67 | 16 | 1.7 | 2.6 | 0.00 | 0.00 | 0.00 | 14 | 1015.9 |
| 20260507025718 | 68 | 27 | 3.5 | 7.0 | 0.00 | 0.00 | 0.00 | 12 | 1015.6 |
| 20260507024711 | 69 | 28 | 3.5 | 5.2 | 0.00 | 0.00 | 0.00 | 12 | 1015.4 |
| 20260507023712 | 69 | 30 | 3.5 | 7.8 | 0.00 | 0.00 | 0.00 | 12 | 1015.3 |
| 20260507021721 | 70 | 30 | 7.0 | 13.0 | 0.00 | 0.00 | 0.00 | 11 | 1015.0 |
| 20260507020719 | 71 | 27 | 7.8 | 13.0 | 0.00 | 0.00 | 0.00 | 11 | 1014.9 |
| 20260507013706 | 72 | 271 | 7.0 | 13.9 | 0.00 | 0.00 | 0.00 | 10 | 1014.5 |
| 20260507012721 | 73 | 252 | 8.7 | 14.8 | 0.00 | 0.00 | 0.00 | 10 | 1014.5 |
| 20260507011715 | 73 | 232 | 9.6 | 13.0 | 0.00 | 0.00 | 0.00 | 10 | 1014.4 |
| 20260507005703 | 74 | 228 | 12.2 | 15.6 | 0.00 | 0.00 | 0.00 | 10 | 1014.2 |
| 20260507004716 | 74 | 280 | 7.8 | 16.5 | 0.00 | 0.00 | 0.00 | 11 | 1014.1 |
| 20260507003705 | 74 | 241 | 11.3 | 18.2 | 0.00 | 0.00 | 0.00 | 10 | 1014.0 |
| 20260507002720 | 75 | 237 | 9.6 | 15.6 | 0.00 | 0.00 | 0.00 | 11 | 1013.9 |
| 20260507000704 | 75 | 209 | 11.3 | 15.6 | 0.00 | 0.00 | 0.00 | 11 | 1013.9 |
| 20260506235719 | 75 | 232 | 10.4 | 19.1 | 0.00 | 0.00 | 0.00 | 10 | 1013.8 |
| 20260506234708 | 75 | 254 | 7.0 | 17.4 | 0.00 | 0.00 | 0.00 | 10 | 1013.7 |
| 20260506233705 | 76 | 198 | 10.4 | 17.4 | 0.00 | 0.00 | 0.00 | 10 | 1013.7 |
| 20260506232704 | 76 | 273 | 8.7 | 14.8 | 0.00 | 0.00 | 0.00 | 11 | 1013.7 |
| 20260506231700 | 75 | 259 | 11.3 | 19.1 | 0.00 | 0.00 | 0.00 | 10 | 1013.8 |
| 20260506230713 | 75 | 241 | 10.4 | 20.9 | 0.00 | 0.00 | 0.00 | 10 | 1013.9 |
| 20260506222658 | 75 | 254 | 11.3 | 17.4 | 0.00 | 0.00 | 0.00 | 12 | 1013.9 |
| 20260506221712 | 76 | 242 | 8.7 | 18.2 | 0.00 | 0.00 | 0.00 | 12 | 1013.8 |
| 20260506220707 | 76 | 251 | 8.7 | 16.5 | 0.00 | 0.00 | 0.00 | 13 | 1013.9 |
| 20260506215659 | 75 | 221 | 11.3 | 14.8 | 0.00 | 0.00 | 0.00 | 13 | 1014.0 |
| 20260506214708 | 75 | 248 | 7.8 | 16.5 | 0.00 | 0.00 | 0.00 | 13 | 1014.1 |
| 20260506213708 | 75 | 244 | 8.7 | 14.8 | 0.00 | 0.00 | 0.00 | 14 | 1014.1 |
| 20260506211713 | 75 | 174 | 4.3 | 13.9 | 0.00 | 0.00 | 0.00 | 16 | 1014.2 |
| 20260506205658 | 74 | 253 | 9.6 | 17.4 | 0.00 | 0.00 | 0.00 | 17 | 1014.5 |
| 20260506201704 | 73 | 274 | 4.3 | 14.8 | 0.00 | 0.00 | 0.00 | 18 | 1014.7 |
| 20260506195712 | 73 | 237 | 6.1 | 13.9 | 0.00 | 0.00 | 0.00 | 19 | 1015.0 |
| 20260506194709 | 72 | 262 | 8.7 | 12.2 | 0.00 | 0.00 | 0.00 | 19 | 1015.2 |
| 20260506193703 | 72 | 220 | 8.7 | 15.6 | 0.00 | 0.00 | 0.00 | 20 | 1015.3 |
| 20260506190704 | 71 | 285 | 10.4 | 13.9 | 0.00 | 0.00 | 0.00 | 21 | 1015.7 |
| 20260506185657 | 70 | 205 | 7.8 | 14.8 | 0.00 | 0.00 | 0.00 | 24 | 1015.7 |
| 20260506184706 | 70 | 255 | 9.6 | 13.9 | 0.00 | 0.00 | 0.00 | 22 | 1015.9 |
| 20260506183658 | 69 | 132 | 9.6 | 14.8 | 0.00 | 0.00 | 0.00 | 25 | 1016.0 |
| 20260506181710 | 69 | 251 | 2.6 | 15.6 | 0.00 | 0.00 | 0.00 | 25 | 1016.2 |
| 20260506180708 | 69 | 201 | 2.6 | 11.3 | 0.00 | 0.00 | 0.00 | 25 | 1016.4 |
| 20260506175706 | 69 | 210 | 6.1 | 15.6 | 0.00 | 0.00 | 0.00 | 24 | 1016.5 |
| 20260506174658 | 69 | 204 | 8.7 | 15.6 | 0.00 | 0.00 | 0.00 | 24 | 1016.4 |
| 20260506173703 | 69 | 187 | 7.8 | 13.0 | 0.00 | 0.00 | 0.00 | 25 | 1016.5 |
| 20260506171657 | 67 | 161 | 7.8 | 13.0 | 0.00 | 0.00 | 0.00 | 26 | 1016.5 |
| 20260506170706 | 67 | 211 | 7.0 | 13.9 | 0.00 | 0.00 | 0.00 | 27 | 1016.5 |
| 20260506165702 | 67 | 239 | 7.0 | 13.9 | 0.00 | 0.00 | 0.00 | 27 | 1016.7 |
| 20260506164709 | 66 | 234 | 7.8 | 14.8 | 0.00 | 0.00 | 0.00 | 28 | 1016.5 |
| 20260506163706 | 65 | 229 | 11.3 | 13.9 | 0.00 | 0.00 | 0.00 | 29 | 1016.6 |
| 20260506162658 | 65 | 265 | 3.5 | 12.2 | 0.00 | 0.00 | 0.00 | 28 | 1016.6 |
| 20260506161653 | 65 | 248 | 6.1 | 14.8 | 0.00 | 0.00 | 0.00 | 29 | 1016.5 |
| 20260506160710 | 65 | 253 | 8.7 | 12.2 | 0.00 | 0.00 | 0.00 | 31 | 1016.5 |
| 20260506154658 | 64 | 227 | 3.5 | 9.6 | 0.00 | 0.00 | 0.00 | 34 | 1016.4 |
| 20260506153652 | 63 | 236 | 7.0 | 10.4 | 0.00 | 0.00 | 0.00 | 34 | 1016.5 |
| 20260506152701 | 63 | 227 | 5.2 | 10.4 | 0.00 | 0.00 | 0.00 | 34 | 1016.5 |
| 20260506151650 | 63 | 237 | 5.2 | 11.3 | 0.00 | 0.00 | 0.00 | 35 | 1016.4 |
| 20260506150704 | 63 | 261 | 5.2 | 8.7 | 0.00 | 0.00 | 0.00 | 35 | 1016.4 |
| 20260506145659 | 62 | 300 | 3.5 | 8.7 | 0.00 | 0.00 | 0.00 | 35 | 1016.4 |
| 20260506144658 | 62 | 282 | 4.3 | 9.6 | 0.00 | 0.00 | 0.00 | 35 | 1016.4 |
| 20260506143654 | 62 | 240 | 1.7 | 7.8 | 0.00 | 0.00 | 0.00 | 36 | 1016.4 |
| 20260506141657 | 62 | 234 | 1.7 | 4.3 | 0.00 | 0.00 | 0.00 | 37 | 1016.4 |
| 20260506140655 | 61 | 275 | 1.7 | 5.2 | 0.00 | 0.00 | 0.00 | 37 | 1016.2 |
| 20260506135651 | 61 | 269 | 1.7 | 2.6 | 0.00 | 0.00 | 0.00 | 40 | 1016.1 |
| 20260506134656 | 60 | 145 | 0.0 | 0.9 | 0.00 | 0.00 | 0.00 | 43 | 1016.1 |
| 20260506133650 | 59 | 101 | 0.9 | 1.7 | 0.00 | 0.00 | 0.00 | 46 | 1016.0 |
| 20260506132658 | 57 | 108 | 0.0 | 0.9 | 0.00 | 0.00 | 0.00 | 50 | 1016.0 |
| 20260506131652 | 55 | 109 | 0.0 | 0.9 | 0.00 | 0.00 | 0.00 | 52 | 1015.8 |
| 20260506130652 | 53 | 109 | 0.0 | 0.9 | 0.00 | 0.00 | 0.00 | 53 | 1015.8 |
| 20260506125649 | 53 | 113 | 0.0 | 1.7 | 0.00 | 0.00 | 0.00 | 53 | 1015.6 |
| 20260506124703 | 52 | 53 | 0.9 | 2.6 | 0.00 | 0.00 | 0.00 | 54 | 1015.5 |
| 20260506123701 | 51 | 105 | 1.7 | 2.6 | 0.00 | 0.00 | 0.00 | 56 | 1015.5 |
| 20260506115659 | 50 | 101 | 0.0 | 1.7 | 0.00 | 0.00 | 0.00 | 58 | 1015.1 |
| 20260506114656 | 50 | 90 | 1.7 | 2.6 | 0.00 | 0.00 | 0.00 | 57 | 1015.0 |
| 20260506113704 | 50 | 80 | 0.9 | 2.6 | 0.00 | 0.00 | 0.00 | 57 | 1014.9 |
| 20260506112703 | 50 | 130 | 2.6 | 4.3 | 0.00 | 0.00 | 0.00 | 56 | 1014.8 |
| 20260506111700 | 51 | 13 | 0.0 | 1.7 | 0.00 | 0.00 | 0.00 | 55 | 1014.7 |
| 20260506110657 | 52 | 16 | 0.0 | 0.9 | 0.00 | 0.00 | 0.00 | 55 | 1014.7 |
| 20260506105704 | 52 | 17 | 0.0 | 0.0 | 0.00 | 0.00 | 0.00 | 54 | 1014.7 |
| 20260506104658 | 52 | 18 | 0.0 | 1.7 | 0.00 | 0.00 | 0.00 | 53 | 1014.6 |
| 20260506103657 | 53 | 18 | 0.0 | 2.6 | 0.00 | 0.00 | 0.00 | 53 | 1014.5 |
| 20260506102653 | 52 | 16 | 2.6 | 3.5 | 0.00 | 0.00 | 0.00 | 53 | 1014.3 |
| 20260506101648 | 52 | 17 | 2.6 | 3.5 | 0.00 | 0.00 | 0.00 | 54 | 1014.2 |
| 20260506095704 | 52 | 132 | 0.9 | 3.5 | 0.00 | 0.00 | 0.00 | 55 | 1014.8 |
| 20260506094655 | 52 | 148 | 0.9 | 3.5 | 0.00 | 0.00 | 0.00 | 55 | 1014.7 |
| 20260506093649 | 52 | 155 | 2.6 | 3.5 | 0.00 | 0.00 | 0.00 | 55 | 1014.6 |
| 20260506092644 | 52 | 108 | 0.9 | 2.6 | 0.00 | 0.00 | 0.00 | 53 | 1014.5 |
| 20260506091658 | 53 | 111 | 1.7 | 2.6 | 0.00 | 0.00 | 0.00 | 51 | 1014.4 |
| 20260506090654 | 54 | 153 | 0.9 | 1.7 | 0.00 | 0.00 | 0.00 | 50 | 1014.4 |
| 20260506085652 | 54 | 175 | 0.0 | 1.7 | 0.00 | 0.00 | 0.00 | 49 | 1014.4 |
| 20260506084645 | 54 | 179 | 0.0 | 3.5 | 0.00 | 0.00 | 0.00 | 48 | 1014.3 |
| 20260506083701 | 54 | 177 | 1.7 | 4.3 | 0.00 | 0.00 | 0.00 | 48 | 1014.2 |
| 20260506082651 | 55 | 173 | 1.7 | 4.3 | 0.00 | 0.00 | 0.00 | 47 | 1014.3 |
| 20260506080646 | 56 | 128 | 2.6 | 3.5 | 0.00 | 0.00 | 0.00 | 45 | 1014.3 |